EW4427 Weather Reports


time (UTC)temp
C
wind
direction
speed
KPH
gust
KPH
rain 1hr
cm
rain 24hr
cm
rain mn
cm
humidity
%
barometer
mb
20260507070544 1 0 0.0 0.0 0.00 0.00 0.00 68 1014.4
20260507070051 1 0 0.0 0.0 0.00 0.00 0.00 68 1014.3
20260507065546 1 0 0.0 0.0 0.00 0.00 0.00 68 1014.4
20260507065044 1 0 0.0 0.0 0.00 0.00 0.00 67 1014.4
20260507064608 1 0 0.0 0.0 0.00 0.00 0.00 67 1014.4
20260507064044 1 0 0.0 0.0 0.00 0.00 0.00 67 1014.5
20260507063547 1 0 0.0 0.0 0.00 0.00 0.00 68 1014.7
20260507063057 1 0 0.0 0.0 0.00 0.00 0.00 68 1014.8
20260507062543 1 0 0.0 0.0 0.00 0.00 0.00 68 1014.9
20260507062043 1 0 0.0 0.0 0.00 0.00 0.00 68 1014.9
20260507061549 1 0 0.0 0.0 0.00 0.00 0.00 68 1014.9
20260507061042 1 0 0.0 0.0 0.00 0.00 0.00 68 1014.8
20260507060544 1 0 0.0 0.0 0.00 0.00 0.00 69 1014.8
20260507060051 1 0 0.0 0.0 0.00 0.00 0.00 69 1014.8
20260507055543 1 0 0.0 0.0 0.00 0.00 0.00 69 1014.8
20260507055044 1 0 0.0 0.0 0.00 0.00 0.00 69 1014.7
20260507054547 1 0 0.0 0.0 0.00 0.00 0.00 69 1014.8
20260507054043 1 0 0.0 0.0 0.00 0.00 0.00 69 1014.8
20260507053544 2 0 0.0 0.0 0.00 0.00 0.00 69 1015.0
20260507053050 2 0 0.0 0.0 0.00 0.00 0.00 69 1014.9
20260507052543 2 0 0.0 0.0 0.00 0.00 0.00 68 1014.9
20260507052043 2 0 0.0 0.0 0.00 0.00 0.00 68 1014.7
20260507051551 2 0 0.0 0.0 0.00 0.00 0.00 68 1014.9
20260507051044 2 0 0.0 0.0 0.00 0.00 0.00 68 1014.8
20260507050543 2 0 0.0 0.0 0.00 0.00 0.00 67 1015.0
20260507050056 2 0 0.0 0.0 0.00 0.00 0.00 67 1014.9
20260507045544 2 0 0.0 0.0 0.00 0.00 0.00 67 1014.9
20260507045043 2 0 0.0 0.0 0.00 0.00 0.00 67 1015.0
20260507044552 2 0 0.0 0.0 0.00 0.00 0.00 67 1014.9
20260507044043 2 0 0.0 0.0 0.00 0.00 0.00 67 1014.9
20260507043543 3 0 0.0 0.0 0.00 0.00 0.00 66 1014.9
20260507043049 3 0 0.0 0.0 0.00 0.00 0.00 65 1014.9
20260507042543 3 0 0.0 0.0 0.00 0.00 0.00 65 1014.9
20260507042043 3 0 0.0 0.0 0.00 0.00 0.00 64 1014.7
20260507041548 3 0 0.0 0.0 0.00 0.00 0.00 64 1014.9
20260507041047 3 0 0.0 0.0 0.00 0.00 0.00 63 1014.9
20260507040547 3 0 0.0 3.2 0.00 0.00 0.00 63 1014.9
20260507040056 3 0 0.0 3.2 0.00 0.00 0.00 62 1015.0
20260507035544 3 0 0.0 0.0 0.00 0.00 0.00 61 1015.1
20260507035043 4 0 0.0 0.0 0.00 0.00 0.00 61 1015.1
20260507034615 4 0 0.0 0.0 0.00 0.00 0.00 60 1015.1
20260507034044 4 0 0.0 0.0 0.00 0.00 0.00 61 1015.2
20260507033543 4 0 0.0 1.6 0.00 0.00 0.00 60 1015.2
20260507033103 4 0 0.0 1.6 0.00 0.00 0.00 60 1015.0
20260507032546 4 0 0.0 1.6 0.00 0.00 0.00 59 1015.1
20260507032046 5 0 0.0 4.8 0.00 0.00 0.00 60 1015.1
20260507031552 5 0 0.0 4.8 0.00 0.00 0.00 59 1015.0
20260507031044 5 0 0.0 0.0 0.00 0.00 0.00 59 1015.0
20260507030546 5 0 0.0 6.4 0.00 0.00 0.00 59 1015.0
20260507030054 5 0 0.0 6.4 0.00 0.00 0.00 58 1015.1
20260507025543 5 0 0.0 3.2 0.00 0.00 0.00 58 1015.0
20260507025043 5 0 0.0 3.2 0.00 0.00 0.00 57 1015.0
20260507024557 5 0 0.0 3.2 0.00 0.00 0.00 57 1015.0
20260507024048 5 0 0.0 3.2 0.00 0.00 0.00 57 1015.0
20260507023542 5 0 0.0 3.2 0.00 0.00 0.00 57 1014.9
20260507023050 5 0 0.0 6.4 0.00 0.00 0.00 57 1014.9
20260507022544 6 0 0.0 6.4 0.00 0.00 0.00 56 1014.7
20260507022044 6 0 0.0 6.4 0.00 0.00 0.00 56 1014.9
20260507021558 6 0 0.0 4.8 0.00 0.00 0.00 56 1014.6
20260507021048 6 95 0.0 6.4 0.00 0.00 0.00 56 1014.6
20260507020544 6 0 0.0 6.4 0.00 0.00 0.00 56 1014.5
20260507020051 6 0 0.0 6.4 0.00 0.00 0.00 55 1014.4
20260507015543 6 0 0.0 4.8 0.00 0.00 0.00 55 1014.3
20260507015044 6 0 0.0 4.8 0.00 0.00 0.00 55 1014.3
20260507014555 6 0 0.0 4.8 0.00 0.00 0.00 55 1014.1
20260507014046 6 0 0.0 3.2 0.00 0.00 0.00 54 1014.2
20260507013544 6 179 0.0 4.8 0.00 0.00 0.00 55 1014.1
20260507013114 7 0 0.0 4.8 0.00 0.00 0.00 54 1014.0
20260507012545 7 0 0.0 4.8 0.00 0.00 0.00 53 1014.0
20260507012045 7 0 0.0 4.8 0.00 0.00 0.00 53 1014.0
20260507011554 7 0 0.0 1.6 0.00 0.00 0.00 53 1013.8
20260507011049 7 0 0.0 3.2 0.00 0.00 0.00 53 1013.9
20260507010545 7 0 0.0 4.8 0.00 0.00 0.00 52 1013.8
20260507010054 7 0 0.0 4.8 0.00 0.00 0.00 53 1013.7
20260507005547 8 0 0.0 4.8 0.00 0.00 0.00 51 1013.7
20260507005044 8 0 0.0 6.4 0.00 0.00 0.00 50 1013.6
20260507004558 8 0 0.0 6.4 0.00 0.00 0.00 50 1013.5
20260507004045 8 89 0.0 3.2 0.00 0.00 0.00 49 1013.4
20260507003545 8 0 0.0 1.6 0.00 0.00 0.00 50 1013.4
20260507003100 9 0 0.0 4.8 0.00 0.00 0.00 50 1013.4
20260507002545 9 0 0.0 4.8 0.00 0.00 0.00 48 1013.4
20260507002047 9 0 0.0 4.8 0.00 0.00 0.00 47 1013.3
20260507001611 9 0 0.0 4.8 0.00 0.00 0.00 48 1013.3
20260507001045 9 194 0.0 4.8 0.00 0.00 0.00 49 1013.1
20260507000545 10 0 0.0 3.2 0.00 0.00 0.00 47 1013.0
20260507000057 10 0 0.0 6.4 0.00 0.00 0.00 47 1013.0
20260506235545 10 0 0.0 6.4 0.00 0.00 0.00 47 1013.1
20260506235045 10 168 1.6 6.4 0.00 0.00 0.00 47 1013.1
20260506234600 10 0 0.0 4.8 0.00 0.00 0.00 46 1013.1
20260506234045 10 0 0.0 3.2 0.00 0.00 0.00 48 1013.0
20260506233546 10 0 0.0 3.2 0.00 0.00 0.00 46 1013.0
20260506233108 10 0 0.0 4.8 0.00 0.00 0.00 46 1013.0
20260506232545 10 0 0.0 6.4 0.00 0.00 0.00 47 1013.0
20260506232045 10 0 0.0 6.4 0.00 0.00 0.00 45 1013.0
20260506231554 10 136 0.0 11.3 0.00 0.00 0.00 45 1012.9
20260506231045 10 19 1.6 11.3 0.00 0.00 0.00 44 1012.9
20260506230545 10 65 0.0 4.8 0.00 0.00 0.00 47 1013.0
20260506230058 10 192 0.0 3.2 0.00 0.00 0.00 47 1012.8
20260506225550 10 208 0.0 4.8 0.00 0.00 0.00 48 1012.9
20260506225046 10 304 0.0 6.4 0.00 0.00 0.00 46 1012.8
20260506224605 11 244 0.0 8.0 0.00 0.00 0.00 47 1012.7
20260506224045 11 205 0.0 8.0 0.00 0.00 0.00 46 1012.7
20260506223545 11 0 0.0 6.4 0.00 0.00 0.00 44 1012.7
20260506223059 11 0 0.0 6.4 0.00 0.00 0.00 44 1012.5
20260506222545 11 0 0.0 6.4 0.00 0.00 0.00 46 1012.6
20260506222046 11 196 0.0 3.2 0.00 0.00 0.00 45 1012.6
20260506221557 11 0 0.0 3.2 0.00 0.00 0.00 44 1012.4
20260506221045 11 0 0.0 4.8 0.00 0.00 0.00 46 1012.5
20260506220545 11 0 0.0 4.8 0.00 0.00 0.00 44 1012.4
20260506220104 11 0 0.0 4.8 0.00 0.00 0.00 45 1012.4
20260506215545 11 0 0.0 4.8 0.00 0.00 0.00 45 1012.4
20260506215045 11 0 0.0 4.8 0.00 0.00 0.00 45 1012.3
20260506214551 11 0 0.0 4.8 0.00 0.00 0.00 47 1012.4
20260506214044 11 0 0.0 4.8 0.00 0.00 0.00 45 1012.4
20260506213544 11 0 0.0 4.8 0.00 0.00 0.00 44 1012.4
20260506213057 11 173 0.0 4.8 0.00 0.00 0.00 47 1012.4
20260506212545 11 0 0.0 4.8 0.00 0.00 0.00 46 1012.4
20260506212045 11 0 0.0 4.8 0.00 0.00 0.00 44 1012.2
20260506211557 11 183 0.0 3.2 0.00 0.00 0.00 46 1012.3
20260506211044 12 0 0.0 3.2 0.00 0.00 0.00 45 1012.4
20260506210544 12 0 0.0 3.2 0.00 0.00 0.00 45 1012.4
20260506210057 12 0 0.0 3.2 0.00 0.00 0.00 45 1012.3
20260506205543 12 0 0.0 6.4 0.00 0.00 0.00 47 1012.3
20260506205043 12 0 0.0 6.4 0.00 0.00 0.00 44 1012.3
20260506204554 12 198 1.6 6.4 0.00 0.00 0.00 45 1012.3
20260506204043 12 0 0.0 4.8 0.00 0.00 0.00 46 1012.4
20260506203544 12 0 0.0 4.8 0.00 0.00 0.00 47 1012.4
20260506203059 12 0 0.0 6.4 0.00 0.00 0.00 43 1012.4
20260506202550 12 0 0.0 6.4 0.00 0.00 0.00 46 1012.5
20260506202048 12 240 1.6 4.8 0.00 0.00 0.00 45 1012.5
20260506201551 12 0 0.0 9.7 0.00 0.00 0.00 43 1012.5
20260506201048 12 242 0.0 11.3 0.00 0.00 0.00 44 1012.7
20260506200548 12 0 1.6 11.3 0.00 0.00 0.00 42 1012.6
20260506200054 12 222 3.2 9.7 0.00 0.00 0.00 41 1012.7
20260506195544 12 0 0.0 8.0 0.00 0.00 0.00 44 1012.6
20260506195047 12 0 3.2 8.0 0.00 0.00 0.00 43 1012.6
20260506194554 12 0 0.0 8.0 0.00 0.00 0.00 42 1012.7
20260506194046 12 0 0.0 8.0 0.00 0.00 0.00 42 1012.6
20260506193544 13 198 0.0 9.7 0.00 0.00 0.00 43 1012.7
20260506193053 13 0 1.6 9.7 0.00 0.00 0.00 44 1012.6
20260506192544 12 226 3.2 12.9 0.00 0.00 0.00 46 1012.5
20260506192045 12 205 3.2 12.9 0.00 0.00 0.00 46 1012.6
20260506191548 12 0 1.6 11.3 0.00 0.00 0.00 47 1012.7
20260506191044 12 230 1.6 11.3 0.00 0.00 0.00 46 1012.7
20260506190547 12 0 3.2 9.7 0.00 0.00 0.00 44 1012.7
20260506190052 12 221 1.6 6.4 0.00 0.00 0.00 45 1012.7
20260506185545 12 188 0.0 6.4 0.00 0.00 0.00 43 1012.8
20260506185046 13 212 1.6 11.3 0.00 0.00 0.00 40 1012.6
20260506184554 14 0 0.0 11.3 0.00 0.00 0.00 41 1012.7
20260506184047 13 246 1.6 8.0 0.00 0.00 0.00 43 1012.5
20260506183547 12 184 0.0 4.8 0.00 0.00 0.00 44 1012.6
20260506183100 12 202 0.0 11.3 0.00 0.00 0.00 42 1012.5
20260506182548 12 217 0.0 11.3 0.00 0.00 0.00 48 1012.7
20260506182044 12 248 1.6 8.0 0.00 0.00 0.00 43 1012.7
20260506181625 13 196 0.0 8.0 0.00 0.00 0.00 43 1012.6
20260506181045 13 0 1.6 8.0 0.00 0.00 0.00 39 1012.4
20260506180545 12 188 1.6 8.0 0.00 0.00 0.00 49 1012.5
20260506180058 12 220 0.0 8.0 0.00 0.00 0.00 48 1012.5
20260506175544 11 214 1.6 9.7 0.00 0.00 0.00 44 1012.7
20260506175045 11 0 1.6 9.7 0.00 0.00 0.00 46 1012.7
20260506174555 12 217 3.2 8.0 0.00 0.00 0.00 48 1012.8
20260506174044 12 187 1.6 6.4 0.00 0.00 0.00 47 1012.8
20260506173545 12 200 0.0 9.7 0.00 0.00 0.00 48 1012.9
20260506173120 12 186 1.6 9.7 0.00 0.00 0.00 43 1013.0
20260506172547 11 220 0.0 8.0 0.00 0.00 0.00 45 1012.9
20260506172045 11 46 0.0 8.0 0.00 0.00 0.00 46 1013.0
20260506171601 12 0 0.0 6.4 0.00 0.00 0.00 42 1013.0
20260506171045 12 211 1.6 6.4 0.00 0.00 0.00 46 1013.1
20260506170544 12 197 0.0 6.4 0.00 0.00 0.00 48 1013.3
20260506170104 12 0 0.0 6.4 0.00 0.00 0.00 48 1013.2
20260506165547 12 0 0.0 6.4 0.00 0.00 0.00 48 1013.3
20260506165045 12 259 0.0 3.2 0.00 0.00 0.00 46 1013.3
20260506164559 12 0 0.0 4.8 0.00 0.00 0.00 45 1013.1
20260506164048 11 0 0.0 9.7 0.00 0.00 0.00 46 1013.3
20260506163548 11 0 0.0 9.7 0.00 0.00 0.00 48 1013.3
20260506163059 11 0 0.0 8.0 0.00 0.00 0.00 46 1013.2
20260506162546 11 0 0.0 8.0 0.00 0.00 0.00 49 1013.3
20260506162047 11 150 0.0 4.8 0.00 0.00 0.00 43 1013.3
20260506161550 11 86 0.0 6.4 0.00 0.00 0.00 45 1013.2
20260506161044 11 0 1.6 6.4 0.00 0.00 0.00 49 1013.2
20260506160544 11 209 0.0 6.4 0.00 0.00 0.00 45 1013.2
20260506160108 11 169 0.0 4.8 0.00 0.00 0.00 46 1013.2
20260506155545 12 173 0.0 4.8 0.00 0.00 0.00 46 1013.0
20260506155045 12 64 0.0 8.0 0.00 0.00 0.00 49 1013.0
20260506154555 11 0 0.0 8.0 0.00 0.00 0.00 43 1013.1
20260506154045 11 0 0.0 6.4 0.00 0.00 0.00 44 1013.1
20260506153545 11 173 0.0 6.4 0.00 0.00 0.00 45 1013.1
20260506153053 12 190 0.0 6.4 0.00 0.00 0.00 49 1013.0
20260506152547 11 32 0.0 8.0 0.00 0.00 0.00 49 1012.9
20260506152045 10 0 0.0 8.0 0.00 0.00 0.00 51 1012.9
20260506151551 10 185 0.0 6.4 0.00 0.00 0.00 50 1012.9
20260506151044 10 195 0.0 3.2 0.00 0.00 0.00 49 1013.0
20260506150544 10 233 0.0 6.4 0.00 0.00 0.00 49 1013.0
20260506150057 10 0 0.0 11.3 0.00 0.00 0.00 48 1013.0
20260506145545 11 0 1.6 11.3 0.00 0.00 0.00 50 1012.9
20260506145046 10 200 3.2 11.3 0.00 0.00 0.00 50 1012.9
20260506144552 11 208 4.8 11.3 0.00 0.00 0.00 50 1012.9
20260506144044 11 0 0.0 8.0 0.00 0.00 0.00 53 1012.9
20260506143547 11 0 0.0 8.0 0.00 0.00 0.00 50 1013.0
20260506143054 10 0 3.2 8.0 0.00 0.00 0.00 54 1012.9
20260506142546 10 212 1.6 9.7 0.00 0.00 0.00 50 1012.9
20260506142050 10 231 3.2 9.7 0.00 0.00 0.00 52 1012.9
20260506141549 10 0 1.6 8.0 0.00 0.00 0.00 49 1012.9
20260506141047 10 0 0.0 8.0 0.00 0.00 0.00 53 1013.0
20260506140547 9 194 3.2 8.0 0.00 0.00 0.00 53 1012.9
20260506140053 9 0 3.2 8.0 0.00 0.00 0.00 53 1013.0
20260506135545 9 202 3.2 8.0 0.00 0.00 0.00 55 1012.9
20260506135044 9 193 1.6 6.4 0.00 0.00 0.00 52 1013.0
20260506134551 9 178 0.0 4.8 0.00 0.00 0.00 55 1013.0
20260506134044 8 189 1.6 4.8 0.00 0.00 0.00 57 1012.9
20260506133545 8 0 0.0 4.8 0.00 0.00 0.00 60 1013.0
20260506133056 8 0 0.0 8.0 0.00 0.00 0.00 61 1013.0
20260506132545 8 0 0.0 8.0 0.00 0.00 0.00 62 1013.0
20260506132045 8 210 1.6 8.0 0.00 0.00 0.00 62 1012.9
20260506131602 7 197 3.2 4.8 0.00 0.00 0.00 65 1012.9
20260506131044 7 209 1.6 4.8 0.00 0.00 0.00 63 1012.8
20260506130544 7 0 0.0 4.8 0.00 0.00 0.00 67 1012.8
20260506130057 7 211 0.0 0.0 0.00 0.00 0.00 65 1012.7
20260506125544 6 0 0.0 0.0 0.00 0.00 0.00 67 1012.7
20260506125044 6 0 0.0 0.0 0.00 0.00 0.00 68 1012.8
20260506124600 6 0 0.0 0.0 0.00 0.00 0.00 69 1012.7
20260506124046 6 0 0.0 0.0 0.00 0.00 0.00 71 1012.6
20260506123546 5 0 0.0 0.0 0.00 0.00 0.00 71 1012.6
20260506123053 5 0 0.0 0.0 0.00 0.00 0.00 73 1012.4
20260506122547 5 0 0.0 0.0 0.00 0.00 0.00 75 1012.4
20260506122046 5 0 0.0 0.0 0.00 0.00 0.00 75 1012.4
20260506121555 4 0 0.0 0.0 0.00 0.00 0.00 78 1012.4
20260506121045 4 0 0.0 0.0 0.00 0.00 0.00 79 1012.2
20260506120547 3 0 0.0 0.0 0.00 0.00 0.00 81 1012.2
20260506120053 3 0 0.0 0.0 0.00 0.00 0.00 82 1012.2
20260506115546 3 0 0.0 0.0 0.00 0.00 0.00 83 1012.2
20260506115043 2 0 0.0 0.0 0.00 0.00 0.00 85 1012.2
20260506114559 2 0 0.0 0.0 0.00 0.00 0.00 86 1012.1
20260506114047 2 0 0.0 0.0 0.00 0.00 0.00 87 1012.0
20260506113546 2 0 0.0 0.0 0.00 0.00 0.00 87 1012.0
20260506113053 1 0 0.0 0.0 0.00 0.00 0.00 87 1012.1
20260506112548 1 0 0.0 0.0 0.00 0.00 0.00 87 1012.0
20260506112045 1 0 0.0 0.0 0.00 0.00 0.00 87 1012.0
20260506111559 1 0 0.0 0.0 0.00 0.00 0.00 86 1012.0
20260506111044 1 0 0.0 0.0 0.00 0.00 0.00 86 1011.9
20260506110544 1 0 0.0 0.0 0.00 0.00 0.00 85 1011.9
20260506110050 1 0 0.0 0.0 0.00 0.00 0.00 84 1011.8
20260506105545 1 0 0.0 0.0 0.00 0.00 0.00 84 1011.6
20260506105046 1 0 0.0 0.0 0.00 0.00 0.00 83 1011.5
20260506104555 1 0 0.0 0.0 0.00 0.00 0.00 83 1011.5
20260506104048 1 0 0.0 0.0 0.00 0.00 0.00 82 1011.4
20260506103547 1 0 0.0 0.0 0.00 0.00 0.00 83 1011.4
20260506103050 1 0 0.0 0.0 0.00 0.00 0.00 83 1011.3
20260506102547 1 0 0.0 0.0 0.00 0.00 0.00 82 1011.2
20260506102047 1 0 0.0 0.0 0.00 0.00 0.00 82 1011.3
20260506101552 1 0 0.0 0.0 0.00 0.00 0.00 83 1011.3
20260506101046 1 0 0.0 0.0 0.00 0.00 0.00 83 1011.3
20260506100547 1 0 0.0 0.0 0.00 0.00 0.00 82 1011.3
20260506100051 1 0 0.0 0.0 0.00 0.00 0.00 82 1011.2
20260506095547 1 0 0.0 0.0 0.00 0.00 0.00 81 1011.3
20260506095046 1 0 0.0 0.0 0.00 0.00 0.00 81 1011.3
20260506094621 2 0 0.0 0.0 0.00 0.00 0.00 81 1011.3
20260506094045 2 0 0.0 0.0 0.00 0.00 0.00 82 1011.4
20260506093545 2 0 0.0 0.0 0.00 0.00 0.00 82 1011.5
20260506093055 2 0 0.0 0.0 0.00 0.00 0.00 82 1011.5
20260506092547 2 0 0.0 0.0 0.00 0.00 0.00 82 1011.5
20260506092047 2 0 0.0 0.0 0.00 0.00 0.00 82 1011.5
20260506091554 2 0 0.0 0.0 0.00 0.00 0.00 82 1011.3
20260506091046 2 0 0.0 0.0 0.00 0.00 0.00 82 1011.3
20260506090546 2 0 0.0 0.0 0.00 0.00 0.00 82 1011.5
20260506090053 2 0 0.0 0.0 0.00 0.00 0.00 81 1011.6
20260506085547 2 0 0.0 0.0 0.00 0.00 0.00 80 1011.4
20260506085047 2 0 0.0 0.0 0.00 0.00 0.00 80 1011.5
20260506084553 2 0 0.0 0.0 0.00 0.00 0.00 79 1011.4
20260506084047 2 0 0.0 0.0 0.00 0.00 0.00 78 1011.3
20260506083550 2 0 0.0 0.0 0.00 0.00 0.00 77 1011.3
20260506083051 2 0 0.0 0.0 0.00 0.00 0.00 76 1011.4
20260506082545 2 0 0.0 0.0 0.00 0.00 0.00 75 1011.3
20260506082045 2 0 0.0 0.0 0.00 0.00 0.00 75 1011.1
20260506081558 2 0 0.0 0.0 0.00 0.00 0.00 73 1011.1
20260506081044 2 0 0.0 0.0 0.00 0.00 0.00 72 1011.0
20260506080546 2 0 0.0 0.0 0.00 0.00 0.00 72 1011.0
20260506073057 3 0 0.0 0.0 0.00 0.00 0.00 73 1010.8
20260506072548 3 0 0.0 0.0 0.00 0.00 0.00 73 1010.7
20260506072047 3 0 0.0 0.0 0.00 0.00 0.00 73 1010.8
20260506071555 3 0 0.0 0.0 0.00 0.00 0.00 72 1010.7
20260506071046 3 0 0.0 0.0 0.00 0.00 0.00 72 1010.9